PHCEY EHSE-EHTX

Flight info

Callsign PHCEY
Flight time N/A
Altitude 1500
Route SEPPE GORINCHEM UTRECHT EHAMV DCT HAARLEM IJMUIDEN DENHELDER
Aircraft DA40/L-SDFGRY/S

Departure

Time 2026-04-19 18:00
Airport Breda International Airport (EHSE)

Arrival

Time N/A
Airport Texel International Airport (EHTX)
Time Latitude Longitude Altitude Speed Heading
2026-04-19 17:39 51.55356 4.55069 35 ft 0 kts 29°
2026-04-19 17:52 51.55367 4.55039 35 ft 8 kts 255°
2026-04-19 17:52 51.55340 4.54938 35 ft 10 kts 244°
2026-04-19 17:52 51.55323 4.54875 35 ft 0 kts 256°
2026-04-19 17:56 51.55322 4.54873 35 ft 2 kts 244°
2026-04-19 17:57 51.55322 4.54872 35 ft 0 kts 249°
2026-04-19 17:57 51.55321 4.54867 35 ft 5 kts 249°
2026-04-19 17:57 51.55317 4.54840 35 ft 0 kts 290°
2026-04-19 17:58 51.55347 4.54812 34 ft 5 kts 359°
2026-04-19 17:58 51.55365 4.54844 34 ft 0 kts 65°
2026-04-19 17:59 51.55419 4.55028 35 ft 47 kts 66°
2026-04-19 18:00 51.55556 4.55669 208 ft 63 kts 59°
2026-04-19 18:00 51.55729 4.56425 409 ft 78 kts 57°
2026-04-19 18:00 51.55960 4.57218 685 ft 82 kts 52°
2026-04-19 18:00 51.56221 4.58034 960 ft 80 kts 51°
2026-04-19 18:01 51.56536 4.58827 1121 ft 88 kts 46°
2026-04-19 18:01 51.56857 4.59515 1507 ft 64 kts 32°
2026-04-19 18:01 51.57269 4.60029 1614 ft 85 kts 31°
2026-04-19 18:01 51.57770 4.60612 1739 ft 92 kts 30°
2026-04-19 18:02 51.58355 4.61276 1632 ft 112 kts 31°
2026-04-19 18:02 51.59028 4.61975 1515 ft 121 kts 26°
2026-04-19 18:02 51.59747 4.62609 1667 ft 111 kts 24°
2026-04-19 18:02 51.60443 4.63202 1683 ft 114 kts 23°
2026-04-19 18:03 51.61163 4.63793 1651 ft 115 kts 22°
2026-04-19 18:03 51.61841 4.64419 1696 ft 114 kts 28°
2026-04-19 18:03 51.62499 4.65144 1711 ft 116 kts 36°
2026-04-19 18:03 51.63030 4.66167 1689 ft 120 kts 47°
2026-04-19 18:04 51.63566 4.67189 1698 ft 118 kts 43°
2026-04-19 18:04 51.64084 4.68223 1681 ft 121 kts 49°
2026-04-19 18:04 51.64437 4.69519 1618 ft 129 kts 68°
2026-04-19 18:04 51.64630 4.70936 1641 ft 127 kts 74°
2026-04-19 18:05 51.64789 4.72299 1727 ft 121 kts 72°
2026-04-19 18:05 51.64931 4.73636 1744 ft 125 kts 73°
2026-04-19 18:05 51.65187 4.74982 1713 ft 125 kts 57°
2026-04-19 18:05 51.65643 4.76123 1767 ft 118 kts 49°
2026-04-19 18:06 51.66121 4.77188 1790 ft 117 kts 47°
2026-04-19 18:06 51.66631 4.78202 1835 ft 115 kts 43°
2026-04-19 18:06 51.67149 4.79167 1859 ft 114 kts 42°
2026-04-19 18:06 51.67697 4.80118 1820 ft 118 kts 40°
2026-04-19 18:07 51.68887 4.81972 1696 ft 122 kts 39°
2026-04-19 18:07 51.69508 4.82897 1553 ft 116 kts 37°
2026-04-19 18:07 51.70033 4.83805 1589 ft 109 kts 51°
2026-04-19 18:08 51.70264 4.84970 1550 ft 116 kts 77°
2026-04-19 18:08 51.70233 4.86276 1551 ft 114 kts 88°
2026-04-19 18:08 51.70201 4.87519 1538 ft 111 kts 72°
2026-04-19 18:08 51.70629 4.88476 1438 ft 105 kts 28°
2026-04-19 18:09 51.71227 4.89087 1490 ft 100 kts 29°
2026-04-19 18:09 51.71837 4.89695 1466 ft 107 kts 28°
2026-04-19 18:09 51.72480 4.90292 1498 ft 106 kts 27°
2026-04-19 18:09 51.73128 4.90865 1496 ft 106 kts 25°
2026-04-19 18:10 51.73797 4.91382 1484 ft 107 kts 20°
2026-04-19 18:10 51.74498 4.91822 1461 ft 108 kts 18°
2026-04-19 18:10 51.75190 4.92137 1511 ft 104 kts 14°
2026-04-19 18:10 51.75882 4.92533 1453 ft 108 kts 19°
2026-04-19 18:11 51.76590 4.92979 1403 ft 109 kts 20°
2026-04-19 18:11 51.77277 4.93466 1377 ft 110 kts 23°
2026-04-19 18:11 51.77989 4.93997 1404 ft 110 kts 20°
2026-04-19 18:11 51.78708 4.94386 1513 ft 106 kts 12°
2026-04-19 18:12 51.79451 4.94659 1465 ft 113 kts 10°
2026-04-19 18:12 51.80226 4.94896 1454 ft 115 kts
2026-04-19 18:12 51.81004 4.95069 1455 ft 115 kts
2026-04-19 18:12 51.81796 4.95202 1495 ft 114 kts
2026-04-19 18:13 51.82582 4.95389 1510 ft 114 kts
2026-04-19 18:13 51.83349 4.95727 1499 ft 113 kts 15°
2026-04-19 18:13 51.84085 4.96081 1539 ft 110 kts 15°
2026-04-19 18:13 51.84836 4.96421 1505 ft 114 kts 13°
2026-04-19 18:14 51.85596 4.96801 1470 ft 114 kts 15°
2026-04-19 18:14 51.86336 4.97171 1476 ft 111 kts 12°
2026-04-19 18:14 51.87087 4.97418 1468 ft 109 kts
2026-04-19 18:14 51.87851 4.97666 1385 ft 112 kts 15°
2026-04-19 18:15 51.88551 4.98131 1400 ft 109 kts 19°
2026-04-19 18:15 51.89263 4.98526 1327 ft 114 kts 15°
2026-04-19 18:15 51.90020 4.98877 1323 ft 111 kts 10°
2026-04-19 18:15 51.90776 4.99092 1302 ft 109 kts
2026-04-19 18:16 51.91507 4.99339 1309 ft 107 kts 15°
2026-04-19 18:16 51.92183 4.99835 1291 ft 111 kts 27°
2026-04-19 18:16 51.92803 5.00545 1352 ft 106 kts 31°
2026-04-19 18:16 51.93425 5.01220 1305 ft 109 kts 29°
2026-04-19 18:17 51.94076 5.01862 1287 ft 110 kts 27°
2026-04-19 18:17 51.94703 5.02485 1285 ft 109 kts 27°
2026-04-19 18:17 51.95340 5.03121 1285 ft 109 kts 27°
2026-04-19 18:17 51.95985 5.03765 1287 ft 109 kts 28°
2026-04-19 18:18 51.96640 5.04416 1293 ft 116 kts 28°
2026-04-19 18:18 51.97344 5.05065 1306 ft 119 kts 27°
2026-04-19 18:18 51.98111 5.05677 1345 ft 122 kts 31°
2026-04-19 18:18 51.98641 5.06648 1707 ft 107 kts 48°
2026-04-19 18:19 51.98993 5.07643 1768 ft 92 kts 58°
2026-04-19 18:19 51.99226 5.08642 1646 ft 99 kts 67°
2026-04-19 18:19 51.99469 5.09618 1463 ft 98 kts 49°
2026-04-19 18:19 51.99967 5.10191 1592 ft 92 kts 25°
2026-04-19 18:20 52.00623 5.10588 1575 ft 105 kts 16°
2026-04-19 18:20 52.01323 5.10964 1537 ft 111 kts 19°
2026-04-19 18:20 52.02044 5.11358 1541 ft 106 kts 14°
2026-04-19 18:20 52.02765 5.11562 1431 ft 106 kts
2026-04-19 18:21 52.03495 5.11646 1359 ft 104 kts
2026-04-19 18:21 52.04227 5.11781 1228 ft 104 kts
2026-04-19 18:21 52.04940 5.11943 1119 ft 103 kts
2026-04-19 18:21 52.05597 5.12214 1199 ft 91 kts 14°
2026-04-19 18:22 52.06183 5.12534 1239 ft 89 kts 17°
2026-04-19 18:22 52.06776 5.12862 1226 ft 91 kts 14°
2026-04-19 18:22 52.07373 5.13089 1257 ft 90 kts 13°
2026-04-19 18:22 52.07991 5.13334 1226 ft 96 kts 10°
2026-04-19 18:23 52.08705 5.13513 1187 ft 105 kts
2026-04-19 18:23 52.09417 5.13664 1208 ft 98 kts
2026-04-19 18:23 52.10100 5.13807 1179 ft 99 kts
2026-04-19 18:23 52.10789 5.13946 1163 ft 100 kts
2026-04-19 18:24 52.11480 5.14087 1114 ft 100 kts
2026-04-19 18:24 52.12166 5.14235 1096 ft 100 kts
2026-04-19 18:24 52.12854 5.14392 1078 ft 100 kts
2026-04-19 18:24 52.13534 5.14548 1058 ft 100 kts
2026-04-19 18:25 52.14225 5.14708 1048 ft 101 kts
2026-04-19 18:25 52.14923 5.14872 1035 ft 100 kts
2026-04-19 18:25 52.15608 5.15031 1005 ft 99 kts
2026-04-19 18:25 52.16276 5.15188 1006 ft 96 kts
2026-04-19 18:26 52.16930 5.15344 1006 ft 94 kts
2026-04-19 18:26 52.17580 5.15501 1004 ft 95 kts
2026-04-19 18:26 52.18234 5.15405 1013 ft 96 kts 345°
2026-04-19 18:26 52.18874 5.15070 1011 ft 98 kts 345°
2026-04-19 18:27 52.19529 5.14728 1005 ft 99 kts 346°
2026-04-19 18:27 52.20202 5.14412 1007 ft 101 kts 348°
2026-04-19 18:27 52.20883 5.14121 1012 ft 101 kts 349°
2026-04-19 18:27 52.21562 5.13839 1003 ft 100 kts 349°
2026-04-19 18:28 52.22238 5.13570 997 ft 98 kts 349°
2026-04-19 18:28 52.22890 5.13317 1001 ft 96 kts 349°
2026-04-19 18:28 52.23540 5.13068 1002 ft 96 kts 349°
2026-04-19 18:28 52.24189 5.12812 1014 ft 96 kts 349°
2026-04-19 18:29 52.24845 5.12556 1017 ft 97 kts 349°
2026-04-19 18:29 52.25505 5.12302 1011 ft 97 kts 349°
2026-04-19 18:29 52.26173 5.12044 1008 ft 104 kts 348°
2026-04-19 18:29 52.26896 5.11761 1001 ft 109 kts 348°
2026-04-19 18:30 52.27645 5.11469 1004 ft 111 kts 349°
2026-04-19 18:30 52.28398 5.11175 1008 ft 112 kts 349°
2026-04-19 18:30 52.29158 5.10883 1004 ft 112 kts 349°
2026-04-19 18:30 52.29849 5.10390 1078 ft 108 kts 329°
2026-04-19 18:31 52.30477 5.09700 1115 ft 107 kts 332°
2026-04-19 18:31 52.31112 5.09032 1074 ft 111 kts 332°
2026-04-19 18:31 52.31764 5.08362 1056 ft 110 kts 332°
2026-04-19 18:31 52.32438 5.07733 996 ft 112 kts 336°
2026-04-19 18:32 52.33106 5.07105 882 ft 112 kts 335°
2026-04-19 18:32 52.33743 5.06523 905 ft 99 kts 335°
2026-04-19 18:32 52.34316 5.05919 860 ft 100 kts 332°
2026-04-19 18:32 52.34901 5.05226 735 ft 105 kts 329°
2026-04-19 18:33 52.35462 5.04546 770 ft 98 kts 328°
2026-04-19 18:33 52.35958 5.03776 769 ft 98 kts 320°
2026-04-19 18:33 52.36391 5.02911 803 ft 98 kts 316°
2026-04-19 18:33 52.36799 5.02029 895 ft 98 kts 314°
2026-04-19 18:34 52.37069 5.01400 852 ft 106 kts 311°
2026-04-19 18:34 52.37509 5.00365 759 ft 113 kts 313°
2026-04-19 18:34 52.37945 4.99379 859 ft 106 kts 313°
2026-04-19 18:34 52.38409 4.98504 960 ft 102 kts 317°
2026-04-19 18:35 52.38884 4.97615 999 ft 104 kts 322°
2026-04-19 18:35 52.39355 4.96862 1221 ft 99 kts 322°
2026-04-19 18:35 52.39867 4.96017 1181 ft 113 kts 317°
2026-04-19 18:35 52.40370 4.95041 1225 ft 109 kts 319°
2026-04-19 18:36 52.40909 4.94158 1230 ft 110 kts 322°
2026-04-19 18:36 52.41427 4.93301 1350 ft 103 kts 321°
2026-04-19 18:36 52.41944 4.92468 1358 ft 106 kts 323°
2026-04-19 18:36 52.42488 4.91604 1317 ft 110 kts 322°
2026-04-19 18:37 52.43060 4.90716 1124 ft 113 kts 324°